Location: Mary A Oil Field
(38.5606°N, 98.9545°W)
Time: 13:21:48
(UTC+00:00)

Ariane Rocket - Pass Details

Date: 20 January 2020
Orbit: 761 x 770 km, 98.7° (Epoch: 27 February)

Event Time Altitude Azimuth Distance (km) Brightness Sun altitude
Rises 01:12:58 0° 143° (SE) 3,211 6.0 -17.5°
Enters shadow 01:14:23 - 140° (SE) 2,670 5.5 -17.7°
Exits shadow 01:18:26 30° 107° (ESE) 1,350 3.8 -18.5°
Maximum altitude 01:20:01 37° 69° (ENE) 1,171 3.4 -18.8°
Drops below altitude 10° 01:24:39 10° 4° (N) 2,309 5.3 -19.7°
Sets 01:27:06 0° 356° (N) 3,241 6.2 -20.2°
